Content
SEND FEEDBACK

Daily
Averages
Monthly
Summary
United States of America

RAPID CITY, SOUTH DAKOTA


Home > North America > United States > South Dakota
Elevation: 3162 feet     Latitude: 44 03N     Longitude: 103 04W

WEATHER
 
SELECT A DAY
Number of Records: 202,817;   Date Range: 1/1/95 - 10/1/14
 
SHARE

PRINT THIS DATA

[ ← Previous Day ]
WEATHER ALMANAC - FEBRUARY 9, 2013
[ Next Day → ]
[ °C ]   °F
Weather ElementAverageHighLow
Temperature27 °F37.9 °F (2:52 pm)19.4 °F (1:48 am)
Dewpoint22.1 °F26.6 °F (10:59 am)17.6 °F (1:48 am)
Humidity83 %100 % (6:24 am)54 % (12:52 pm)
Barometer29.80 in29.90 in (6:52 am)29.67 in (1:52 pm)
Wind Speed16.2 mph24.2 mph (10:17 am)
Wind Gust31.1 mph (11:52 pm)
Weather ElementAverage
Visibility6.9 mi
Wind DirectionSSE (171 °)

Weather ElementTotal
Precipitation---
Heating Degree Days36.4 (Base 65)
Averaged from 39 records on February 9, 2013
WEATHER CONDITIONS BREAKOUT
WIND DIRECTION BREAKOUT
WEATHER BY HOUR - FEBRUARY 9, 2013
[ °C ]   °F
Local TimeTemperatureDewpointHumidityBarometerVisibilityWind DirectionWind SpeedGust SpeedPrecipitationEventsConditions
1:48 AM19.4 °F17.6 °F93 %29.80 in10.0 miNorth (360°)6.9 mphScattered Clouds
1:52 AM19.9 °F18.0 °F92 %29.89 in10.0 miNorth (360°)6.9 mphMostly Cloudy
2:22 AM24.8 °F21.2 °F86 %29.80 in3.0 miNorth (360°)9.2 mphOvercast
2:52 AM23.0 °F21.0 °F92 %29.88 in10.0 miNorth (350°)9.2 mphMostly Cloudy
3:52 AM24.1 °F21.0 °F88 %29.89 in10.0 miNNW (340°)3.5 mphClear
4:52 AM21.9 °F19.9 °F92 %29.88 in10.0 miNorth (350°)13.8 mphScattered Clouds
5:52 AM23.0 °F19.9 °F88 %29.88 in10.0 miNNE (30°)11.5 mphPartly Cloudy
6:18 AM21.2 °F19.4 °F93 %29.77 in5.0 miNorth (10°)17.3 mphMostly Cloudy
6:24 AM21.2 °F21.2 °F100 %29.77 in1.8 miNorth (10°)17.3 mphOvercast
6:42 AM21.2 °F21.2 °F100 %29.77 in0.8 miNorth (10°)15.0 mphOvercast
6:52 AM21.9 °F21.0 °F96 %29.90 in1.0 miNorth (10°)15.0 mphOvercast
7:35 AM21.2 °F21.2 °F100 %29.79 in2.0 miNorth (10°)15.0 mphOvercast
7:43 AM23.0 °F21.2 °F93 %29.78 in1.5 miNNE (20°)16.1 mphOvercast
7:52 AM23.0 °F21.0 °F92 %29.90 in0.8 miNNE (20°)16.1 mphOvercast
8:09 AM23.0 °F21.2 °F93 %29.78 in0.2 miNorth (10°)15.0 mphFogLight Freezing Fog
8:17 AM23.0 °F21.2 °F93 %29.79 in0.2 miNorth (10°)17.3 mphFogLight Freezing Fog
8:35 AM24.8 °F23.0 °F93 %29.79 in0.5 miNNE (20°)18.4 mphFogLight Freezing Fog
8:52 AM25.0 °F24.1 °F96 %29.89 in1.2 miNorth (10°)17.3 mphOvercast
9:11 AM26.6 °F24.8 °F93 %29.78 in2.5 miNorth (10°)21.9 mphOvercast
9:18 AM26.6 °F24.8 °F93 %29.78 in4.0 miNorth (360°)18.4 mph26.5 mphOvercast
9:52 AM27.0 °F25.0 °F92 %29.87 in6.0 miNorth (360°)23.0 mph28.8 mphOvercast
10:17 AM26.6 °F24.8 °F93 %29.78 in10.0 miNorth (360°)24.2 mphScattered Clouds
10:25 AM28.4 °F24.8 °F86 %29.78 in10.0 miNorth (360°)19.6 mphMostly Cloudy
10:52 AM28.9 °F25.0 °F85 %29.87 in10.0 miNorth (360°)16.1 mph21.9 mphMostly Cloudy
10:59 AM30.2 °F26.6 °F86 %29.77 in10.0 miNorth (360°)18.4 mphOvercast
11:31 AM33.8 °F24.8 °F70 %29.75 in10.0 miNorth (10°)17.3 mphScattered Clouds
11:52 AM34.0 °F25.0 °F70 %29.83 in10.0 miNorth (10°)21.9 mphClear
12:52 PM37.0 °F21.9 °F54 %29.79 in10.0 miNorth (10°)18.4 mph26.5 mphClear
1:52 PM35.6 °F23.0 °F60 %29.67 in10.0 miNorth (360°)21.9 mph26.5 mphScattered Clouds
2:52 PM37.9 °F24.1 °F57 %29.74 in10.0 miNorth (360°)21.9 mph27.6 mphOvercast
3:52 PM36.0 °F23.0 °F59 %29.75 in10.0 miNorth (10°)18.4 mph24.2 mphOvercast
4:52 PM34.0 °F23.0 °F64 %29.78 in10.0 miNorth (10°)17.3 mphOvercast
5:52 PM32.0 °F21.9 °F66 %29.79 in10.0 miNNE (20°)13.8 mphOvercast
6:52 PM28.9 °F23.0 °F78 %29.79 in10.0 miNNE (20°)11.5 mphOvercast
7:52 PM28.0 °F23.0 °F81 %29.77 in10.0 miNorth (360°)13.8 mphOvercast
8:52 PM28.9 °F21.0 °F72 %29.78 in10.0 miNorth (10°)13.8 mphOvercast
9:52 PM28.9 °F19.9 °F69 %29.75 in10.0 miNorth (350°)18.4 mph25.3 mphOvercast
10:52 PM30.0 °F19.9 °F66 %29.73 in10.0 miNNW (340°)19.6 mph28.8 mphOvercast
11:52 PM30.0 °F19.0 °F64 %29.73 in10.0 miNNW (340°)20.7 mph31.1 mphOvercast
Hourly data recorded from KRAP, located miles away from Rapid City, South Dakota







STORIES FROM OUR PARTNERS